sat.trackr.live / text

‹ back to catalog

STARLINK-6327

NORAD 56522 · 2023-065V

PAYLOAD ACTIVE UNKNOWN

§ Identity

Operator
Country
US
Launch date
2023-05-14
Launch site
AFETR
Launch vehicle
Mass (kg)
RCS (m²)

Purposes: comms

External: N2YO · Heavens-Above · Gunter

§ Orbital elements

Epoch: 2026-09-20T04:25:58.268352Z

Period
94.27 min
Inclination
43.0037°
Eccentricity
0.0000956
Mean motion
15.27574476 rev/d
Perigee alt
482.4 km
Apogee alt
483.7 km
Semi-major
6,861.2 km
B*
3.0604e-6
RAAN
194.1949°
Arg perigee
266.8325°
Mean anomaly
93.2418°
Rev number
18,634

§ Raw data

STARLINK-63271 56522U 23065V   26263.18470218 -.00000178  00000+0  30604-5 0  99902 56522  43.0037 194.1949 0000956 266.8325  93.2418 15.27574476186345

JSON: /api/v1/satellites/56522 · /tle

For live sub-satellite position, see the globe view (requires WebGL).

§ Visibility from observer

Set your observer location to see the next 7 days of passes ≥ 10°. The values pass through the URL so the page stays shareable.

No JS? Fill the form by hand. The geolocation button needs JavaScript.